Regional Weather Roundup
Issued by NWS Memphis, TN

Current Version | Previous Version | Text Only | Print | Product List | Glossary On
Versions: 1 2 3 4 5 6 7 8 9 10 11 12 13 14 15 16 17 18 19 20 21 22 23 24 25 26 27 28 29 30 31 32 33 34 35 36 37 38 39 40 41 42 43 44 45 46 47 48 49 50
000
ASUS44 KMEG 290210
RWRMEG
MEMPHIS CWA HOURLY WEATHER ROUNDUP
NATIONAL WEATHER SERVICE MEMPHIS TN
800 PM CST SUN DEC 28 2014

...WEST TENNESSEE...

CITY           SKY/WX    TMP DP  RH WIND       PRES   REMARKS
MEMPHIS INTL   LGT RAIN  39  35  86 NE6       30.18R WCI  35
NWS MEMPHIS      N/A     38 N/A N/A MISG        N/A
JACKSON        LGT SNOW  37  36  93 N7        30.18R FOG     WCI  32
LEXINGTON      CLOUDY    37  37 100 N6        30.15R WCI  33
SAVANNAH       CLOUDY    39  39 100 NE3       30.14F
DYERSBURG      CLOUDY    37  23  56 NE7       30.22R WCI  32
UNION CITY     CLOUDY    34  34 100 N6        30.18F WCI  29
PARIS          CLOUDY    34  30  86 N6        30.18S WCI  29
HUNTINGDON     CLOUDY    34  32  92 N5        30.18S WCI  30


...EASTERN ARKANSAS...

CITY           SKY/WX    TMP DP  RH WIND       PRES   REMARKS
JONESBORO      CLOUDY    37  32  82 NE6       30.21S WCI  32
WEST MEMPHIS   CLOUDY    38  35  89 N8        30.20R WCI  32
BATESVILLE     CLOUDY    34  28  80 CALM      30.21S
NEWPORT        CLOUDY    37  33  85 N6        30.22S WCI  32
WALNUT RIDGE   CLOUDY    36  28  75 NE5       30.21S WCI  32
BLYTHEVILLE    CLOUDY    37  34  89 N7        30.22R WCI  32
SEARCY         CLOUDY    37  31  78 NE6       30.22F WCI  32
STUTTGART      CLOUDY    37  34  87 N10       30.19F WCI  30
PINE BLUFF     CLOUDY    39  34  82 NE6       30.18F WCI  35
MONTICELLO     LGT RAIN  40  37  89 VRB5      30.16F


...NORTH MISSISSIPPI...

CITY           SKY/WX    TMP DP  RH WIND       PRES   REMARKS
TUPELO         LGT RAIN  43  40  89 NE10      30.14F
OXFORD         CLOUDY    39  37  93 N5        30.17S FOG
OLIVE BRANCH   CLOUDY    36  36 100 N7        30.19R FOG     WCI  30
TUNICA         LGT RAIN  37  36  93 N9        30.20R WCI  31
CLARKSDALE     CLOUDY    39  39 100 N9        30.19S WCI  33
GRENADA        LGT RAIN  41  41 100 CALM      30.16S
GREENWOOD      LGT RAIN  43  41  93 NE7       30.15S
COLUMBUS       RAIN      45  45  99 N8        30.13R
STARKVILLE     LGT RAIN  43  43 100 NW3       30.14R
GOLDEN TRIANGL CLOUDY    46  43  87 N9        30.12


...SOUTHEAST MISSOURI...

CITY           SKY/WX    TMP DP  RH WIND       PRES   REMARKS
WEST PLAINS    CLEAR     27  22  81 E3        30.18R
POPLAR BLUFF   CLOUDY    35  27  72 VRB3      30.22R
CAPE GIRARDEAU CLOUDY    34  28  79 NE7       30.22S WCI  28


...NORTHWEST ALABAMA...

CITY           SKY/WX    TMP DP  RH WIND       PRES   REMARKS
MUSCLE SHOALS  LGT RAIN  44  40  85 N7        30.15S


...MIDDLE TENNESSEE...

CITY           SKY/WX    TMP DP  RH WIND       PRES   REMARKS
NASHVILLE      CLOUDY    38  36  92 N5        30.16F FOG     WCI  34
CLARKSVILLE    CLOUDY    36  32  85 N5        30.19S WCI  32
COLUMBIA       CLOUDY   N/A N/A N/A N3        30.14S


...WESTERN KENTUCKY...

CITY           SKY/WX    TMP DP  RH WIND       PRES   REMARKS
PADUCAH        CLOUDY    34  29  82 NE6       30.20S WCI  29
FORT CAMPBELL  CLOUDY    35  32  88 NE6       30.18F WCI  30


...CENTRAL ARKANSAS...

CITY           SKY/WX    TMP DP  RH WIND       PRES   REMARKS
LITTLE ROCK    CLOUDY    39  32  76 NE6       30.21R WCI  35


SKY/WX REPORTED AS FAIR MEANS FEW OR NO CLOUDS BELOW
12 THOUSAND FEET.




USA.gov is the U.S. government's official web portal to all federal, state and local government web resources and services.